| time (UTC) | temp F | wind direction | speed knots | gust knots | rain 1hr in | rain 24hr in | rain mn in | humidity % | barometer mb |
| 20260506020054 | 58 | 231 | 0.9 | 3.5 | 0.00 | 0.00 | 0.00 | ||
| 20260506013035 | 59 | 203 | 1.7 | 4.3 | 0.00 | 0.00 | 0.00 | ||
| 20260506010103 | 60 | 258 | 0.9 | 7.0 | 0.00 | 0.00 | 0.00 | ||
| 20260506003044 | 61 | 284 | 0.9 | 5.2 | 0.00 | 0.00 | 0.00 | ||
| 20260506000052 | 63 | 269 | 0.9 | 7.0 | 0.00 | 0.00 | 0.00 | ||
| 20260505233053 | 62 | 255 | 2.6 | 7.0 | 0.00 | 0.00 | 0.00 | ||
| 20260505223020 | 62 | 274 | 0.9 | 5.2 | 0.00 | 0.00 | 0.00 | ||
| 20260505220103 | 63 | 246 | 0.9 | 5.2 | 0.00 | 0.00 | 0.00 | ||
| 20260505210058 | 64 | 194 | 0.9 | 7.0 | 0.00 | 0.00 | 0.00 | ||
| 20260505203038 | 64 | 254 | 2.6 | 5.2 | 0.00 | 0.00 | 0.00 | ||
| 20260505193039 | 61 | 273 | 1.7 | 4.3 | 0.00 | 0.00 | 0.00 | ||
| 20260505190103 | 59 | 211 | 0.9 | 4.3 | 0.00 | 0.00 | 0.00 | ||
| 20260505173039 | 58 | 235 | 0.9 | 3.5 | 0.00 | 0.00 | 0.00 | ||
| 20260505170108 | 57 | 237 | 0.9 | 5.2 | 0.00 | 0.00 | 0.00 | ||
| 20260505163046 | 58 | 259 | 0.0 | 2.6 | 0.00 | 0.00 | 0.00 | ||
| 20260505140110 | 55 | 240 | 0.0 | 1.7 | 0.00 | 0.00 | 0.00 | ||
| 20260505120106 | 55 | 237 | 0.9 | 2.6 | 0.00 | 0.00 | 0.00 | ||
| 20260505113026 | 55 | 245 | 0.0 | 3.5 | 0.00 | 0.00 | 0.00 | ||
| 20260505100100 | 55 | 232 | 0.9 | 3.5 | 0.00 | 0.00 | 0.00 | ||
| 20260505093035 | 55 | 250 | 0.0 | 2.6 | 0.00 | 0.00 | 0.00 | ||
| 20260505083044 | 55 | 208 | 0.0 | 1.7 | 0.00 | 0.00 | 0.00 | ||
| 20260505080053 | 55 | 212 | 0.0 | 6.1 | 0.00 | 0.00 | 0.00 | ||
| 20260505073034 | 55 | 161 | 0.9 | 3.5 | 0.00 | 0.00 | 0.00 | ||
| 20260505063046 | 56 | 263 | 0.9 | 4.3 | 0.00 | 0.00 | 0.00 | ||
| 20260505060056 | 56 | 268 | 0.9 | 5.2 | 0.00 | 0.00 | 0.00 | ||
| 20260505053053 | 56 | 265 | 0.0 | 4.3 | 0.00 | 0.00 | 0.00 | ||
| 20260505040106 | 56 | 252 | 0.9 | 7.0 | 0.00 | 0.00 | 0.00 | ||
| 20260505030058 | 57 | 249 | 1.7 | 4.3 | 0.00 | 0.00 | 0.00 | ||
| 20260505023038 | 57 | 262 | 1.7 | 6.1 | 0.00 | 0.00 | 0.00 |